STARLINK-32282, 61006

Orbit data source: Space-Track

STARLINK-32282, 61006 is a payload satellite owned by SpaceX/Seattle (US) in LEO that was launched on Thu, 05 Sep 2024 UTC via an FALCON 9 launch vehicle from the Air Force Eastern Test Range (AFETR). Payload-class satellites include a variety of spacecraft equipped with specific instruments for various scientific and technological missions. These include communications satellites like Starlink; space stations such as the ISS; scientific satellites like the Hubble; Earth observation satellites from companies like Planet Labs, Umbra, and HawkEye 360; GPS; miniature CubeSats for education and research; and military/defense satellites.

Loading next visibility...
Identifier
61006, 2024-158S
Orbit
LEO
Country
Flag of USUS
Related business
Manufacturer
SpaceX/Seattle
Mission
Operational Commercial Communications
Bus & Motor
STARLINK V2M, Unknown motor
Mass
730 kg wet, ~700 kg dry
Launch date (UTC)
2024-09-05 (1 year ago)
Launch vehicle
FALCON 9
Launch site
Air Force Eastern Test Range (AFETR)
Object type
Payload
Rocket body
Debris
Shape & HBR
Box + 2 Pan, 17.7 m
Radar Cross Section
33.884 m², Large (>1 m²)

Expand to show TLE details & history
Last TLE update: 1 day ago

TLE from 1 day ago
0 STARLINK-32282
1 61006U 24158S   25286.47652663 -.00000426  00000-0 -22697-5 0  9990
2 61006  53.1619  29.2200 0001304 103.7466 256.3680 15.30190179 63117
Epoch: 2025-10-13T11:26Z
TLE epoch observation values (Epoch: 2025-10-13T11:26:11.900Z)
Latitude
-0.00004°
Longitude
-164.60837°
Altitude
476.355 km
Speed
7.629 km/s
True Right ascension
01h 56m 52s
True Declination
0° 00' 00"
Sunlit
Object was in full shadow at epoch
Visualization orbit readout
Latitude
Unknown
Longitude
Unknown
Altitude
Unknown
Speed
Unknown
Apparent Right ascension
Unknown
Apparent Declination
Unknown
Sunlit
N/A
Visualization observer readout
Local Sidereal Time
09:35:41
Azimuth
Unknown
Elevation
Unknown
Doppler factor
Unknown
Orbital elements
Apogee altitude
476.394 km
Perigee altitude
474.607 km
Semi-major axis
6,853.638 km
Eccentricity
0.00013
Inclination
53.1619°
RAAN
29.22°
Arg. of periapsis
103.7466°
True anomaly
256.35348°
Mean anomaly
256.368°
Eccentric anomaly
256.36074°
Mean motion
3.82526 °/min
Orbital period
94.11 mins
BSTAR
-0.0000022697
Loading maneuver chart data...
Computing Atmospheric mass density...
Loading historical data...
Loading historical data...
Loading historical data...
Loading historical data...
Loading historical data...
Loading historical data...
Loading historical data...

Documentation

Showing up to 5 results
|